• In Russia
  • List of Countries
  • For 7 days
  • Water Temperature
  • Satellite Maps
  • Weather Map
  • Weather Widgets
  • user-avatar
    Login

    Hourly Weather Jewłach

    Today, 23 September, Saturday

    Time Temperature Precipitation Wind Pressure Humidity
    00:00 +27°C° 0 mm 1 mps 759 mmHg 50%
    01:00 +26°C° 0 mm 1 mps 759 mmHg 52%
    02:00 +26°C° 0 mm 1 mps 760 mmHg 54%
    03:00 +26°C° 0 mm 1 mps 759 mmHg 57%
    04:00 +26°C° 0.2 mm 1 mps 760 mmHg 58%
    05:00 +25°C° 0.2 mm 1 mps 760 mmHg 60%
    06:00 +25°C° 0.2 mm 1 mps 760 mmHg 61%
    07:00 +27°C° 0.1 mm 2 mps 760 mmHg 58%
    08:00 +28°C° 0.1 mm 2 mps 760 mmHg 55%
    09:00 +30°C° 0.1 mm 3 mps 760 mmHg 52%
    10:00 +31°C° 0 mm 3 mps 760 mmHg 45%
    11:00 +34°C° 0 mm 4 mps 760 mmHg 39%
    12:00 +35°C° 0 mm 5 mps 760 mmHg 33%
    13:00 +35°C° 0 mm 5 mps 760 mmHg 31%
    14:00 +36°C° 0 mm 5 mps 760 mmHg 29%
    15:00 +36°C° 0 mm 6 mps 760 mmHg 27%
    16:00 +35°C° 0 mm 5 mps 760 mmHg 29%
    17:00 +33°C° 0 mm 5 mps 760 mmHg 31%
    18:00 +32°C° 0 mm 4 mps 760 mmHg 32%
    19:00 +30°C° 0 mm 4 mps 761 mmHg 35%
    20:00 +29°C° 0 mm 4 mps 761 mmHg 38%
    21:00 +28°C° 0 mm 4 mps 761 mmHg 41%
    22:00 +27°C° 0 mm 4 mps 762 mmHg 45%
    23:00 +26°C° 0 mm 3 mps 762 mmHg 48%

    Tomorrow, 24 September, Sunday

    Time Temperature Precipitation Wind Pressure Humidity
    00:00 +25°C° 0 mm 3 mps 762 mmHg 52%
    01:00 +25°C° 0 mm 2 mps 762 mmHg 54%
    02:00 +24°C° 0 mm 2 mps 762 mmHg 57%
    03:00 +24°C° 0 mm 1 mps 762 mmHg 59%
    04:00 +23°C° 0 mm 1 mps 762 mmHg 61%
    05:00 +23°C° 0 mm 1 mps 763 mmHg 63%
    06:00 +23°C° 0 mm 1 mps 763 mmHg 64%
    07:00 +24°C° 0 mm 1 mps 763 mmHg 59%
    08:00 +26°C° 0 mm 1 mps 763 mmHg 54%
    09:00 +28°C° 0 mm 2 mps 763 mmHg 49%
    10:00 +29°C° 0 mm 2 mps 763 mmHg 44%
    11:00 +30°C° 0 mm 2 mps 763 mmHg 40%
    12:00 +31°C° 0 mm 3 mps 762 mmHg 35%
    13:00 +33°C° 0 mm 3 mps 762 mmHg 34%
    14:00 +33°C° 0 mm 3 mps 762 mmHg 32%
    15:00 +34°C° 0 mm 4 mps 762 mmHg 30%
    16:00 +33°C° 0 mm 3 mps 762 mmHg 32%
    17:00 +31°C° 0 mm 3 mps 762 mmHg 34%
    18:00 +29°C° 0 mm 3 mps 762 mmHg 37%
    19:00 +28°C° 0 mm 3 mps 763 mmHg 41%
    20:00 +27°C° 0 mm 4 mps 763 mmHg 46%
    21:00 +26°C° 0 mm 4 mps 764 mmHg 50%
    22:00 +26°C° 0 mm 4 mps 764 mmHg 55%
    23:00 +25°C° 0 mm 3 mps 764 mmHg 59%

    Day after tomorrow, 25 September, Monday

    Time Temperature Precipitation Wind Pressure Humidity
    00:00 +24°C° 0 mm 2 mps 764 mmHg 64%
    01:00 +24°C° 0 mm 2 mps 764 mmHg 66%
    02:00 +23°C° 0 mm 2 mps 764 mmHg 69%
    03:00 +23°C° 0 mm 1 mps 764 mmHg 71%
    04:00 +22°C° 0 mm 1 mps 764 mmHg 72%
    05:00 +22°C° 0 mm 1 mps 764 mmHg 73%
    06:00 +20°C° 0 mm 0 mps 764 mmHg 73%
    07:00 +24°C° 0 mm 1 mps 764 mmHg 66%
    08:00 +25°C° 0 mm 1 mps 764 mmHg 59%
    09:00 +27°C° 0 mm 1 mps 764 mmHg 52%
    10:00 +28°C° 0 mm 2 mps 764 mmHg 46%
    11:00 +30°C° 0 mm 2 mps 764 mmHg 40%
    12:00 +31°C° 0 mm 3 mps 763 mmHg 35%
    13:00 +33°C° 0 mm 3 mps 763 mmHg 33%
    14:00 +33°C° 0 mm 3 mps 763 mmHg 31%
    15:00 +34°C° 0 mm 3 mps 762 mmHg 29%
    16:00 +31°C° 0 mm 3 mps 763 mmHg 31%
    17:00 +30°C° 0 mm 3 mps 763 mmHg 34%
    18:00 +29°C° 0 mm 3 mps 763 mmHg 36%
    19:00 +28°C° 0 mm 3 mps 764 mmHg 38%
    20:00 +27°C° 0 mm 4 mps 764 mmHg 41%
    21:00 +27°C° 0 mm 4 mps 764 mmHg 43%
    22:00 +26°C° 0 mm 4 mps 764 mmHg 45%
    23:00 +25°C° 0 mm 3 mps 764 mmHg 48%

    26 September, Tuesday

    Time Temperature Precipitation Wind Pressure Humidity
    00:00 +25°C° 0 mm 3 mps 764 mmHg 50%
    01:00 +24°C° 0 mm 3 mps 764 mmHg 51%
    02:00 +22°C° 0 mm 3 mps 764 mmHg 52%
    03:00 +23°C° 0 mm 2 mps 764 mmHg 53%
    04:00 +21°C° 0 mm 2 mps 764 mmHg 55%
    05:00 +21°C° 0 mm 2 mps 764 mmHg 57%
    06:00 +20°C° 0 mm 2 mps 765 mmHg 59%
    07:00 +22°C° 0 mm 3 mps 765 mmHg 55%
    08:00 +25°C° 0 mm 3 mps 765 mmHg 51%
    09:00 +26°C° 0 mm 4 mps 765 mmHg 47%
    10:00 +27°C° 0 mm 4 mps 764 mmHg 44%
    11:00 +28°C° 0 mm 5 mps 764 mmHg 41%
    12:00 +29°C° 0 mm 5 mps 764 mmHg 38%
    13:00 +30°C° 0 mm 5 mps 764 mmHg 38%
    14:00 +30°C° 0 mm 5 mps 763 mmHg 37%
    15:00 +30°C° 0 mm 5 mps 763 mmHg 37%
    16:00 +29°C° 0 mm 6 mps 763 mmHg 40%
    17:00 +27°C° 0 mm 6 mps 763 mmHg 44%
    18:00 +26°C° 0 mm 6 mps 764 mmHg 48%
    19:00 +24°C° 0 mm 6 mps 764 mmHg 53%
    20:00 +23°C° 0 mm 6 mps 764 mmHg 58%
    21:00 +22°C° 0 mm 6 mps 765 mmHg 63%
    22:00 +21°C° 0 mm 5 mps 764 mmHg 64%
    23:00 +21°C° 0 mm 4 mps 764 mmHg 66%

    27 September, Wednesday

    Time Temperature Precipitation Wind Pressure Humidity
    00:00 +20°C° 0 mm 4 mps 764 mmHg 67%
    01:00 +20°C° 0 mm 3 mps 764 mmHg 67%
    02:00 +20°C° 0 mm 2 mps 764 mmHg 66%
    03:00 +20°C° 0 mm 2 mps 763 mmHg 66%
    04:00 +21°C° 0 mm 1 mps 763 mmHg 66%
    05:00 +21°C° 0 mm 1 mps 763 mmHg 66%
    06:00 +21°C° 0 mm 1 mps 763 mmHg 66%
    07:00 +21°C° 0 mm 1 mps 763 mmHg 64%
    08:00 +22°C° 0 mm 1 mps 763 mmHg 61%
    09:00 +23°C° 0 mm 2 mps 763 mmHg 58%
    10:00 +24°C° 0 mm 2 mps 762 mmHg 55%
    11:00 +25°C° 0 mm 2 mps 762 mmHg 52%
    12:00 +26°C° 0 mm 3 mps 762 mmHg 48%
    13:00 +27°C° 0 mm 3 mps 761 mmHg 47%
    14:00 +28°C° 0 mm 3 mps 761 mmHg 45%
    15:00 +28°C° 0 mm 3 mps 761 mmHg 43%
    16:00 +27°C° 0 mm 4 mps 761 mmHg 46%
    17:00 +26°C° 0 mm 4 mps 762 mmHg 49%
    18:00 +26°C° 0 mm 5 mps 762 mmHg 53%
    19:00 +25°C° 0 mm 5 mps 762 mmHg 55%
    20:00 +23°C° 0 mm 5 mps 763 mmHg 57%
    21:00 +22°C° 0 mm 5 mps 763 mmHg 59%
    22:00 +22°C° 0 mm 5 mps 763 mmHg 60%
    23:00 +21°C° 0 mm 4 mps 763 mmHg 62%

    28 September, Thursday

    Time Temperature Precipitation Wind Pressure Humidity
    00:00 +21°C° 0 mm 4 mps 763 mmHg 63%
    01:00 +20°C° 0.1 mm 4 mps 763 mmHg 65%
    02:00 +20°C° 0.1 mm 4 mps 763 mmHg 67%
    03:00 +20°C° 0.1 mm 4 mps 763 mmHg 69%
    04:00 +19°C° 0.2 mm 4 mps 764 mmHg 71%
    05:00 +19°C° 0.2 mm 4 mps 764 mmHg 73%
    06:00 +19°C° 0.2 mm 3 mps 764 mmHg 75%
    07:00 +19°C° 0.3 mm 4 mps 764 mmHg 77%
    08:00 +19°C° 0.3 mm 4 mps 765 mmHg 78%
    09:00 +19°C° 0.3 mm 4 mps 765 mmHg 79%
    10:00 +19°C° 0.2 mm 4 mps 765 mmHg 77%
    11:00 +20°C° 0.2 mm 5 mps 765 mmHg 76%
    12:00 +20°C° 0.2 mm 5 mps 765 mmHg 75%
    13:00 +20°C° 0.1 mm 5 mps 765 mmHg 75%
    14:00 +19°C° 0.1 mm 5 mps 765 mmHg 75%
    15:00 +19°C° 0.1 mm 4 mps 765 mmHg 75%
    16:00 +19°C° 0.1 mm 4 mps 765 mmHg 77%
    17:00 +19°C° 0.1 mm 4 mps 765 mmHg 78%
    18:00 +18°C° 0.1 mm 3 mps 766 mmHg 80%
    19:00 +18°C° 0.2 mm 3 mps 766 mmHg 81%
    20:00 +18°C° 0.2 mm 3 mps 766 mmHg 81%
    21:00 +18°C° 0.2 mm 3 mps 766 mmHg 82%
    22:00 +18°C° 0.1 mm 3 mps 766 mmHg 83%
    23:00 +17°C° 0.1 mm 2 mps 766 mmHg 83%
    Show more